| time (UTC) | temp F | wind direction | speed knots | gust knots | rain 1hr in | rain 24hr in | rain mn in | humidity % | barometer mb |
| 20260906100042 | 69 | 0 | 0.0 | 0.0 | 0.00 | 0.00 | 0.00 | 88 | 1017.8 |
| 20260906094543 | 69 | 0 | 0.0 | 0.0 | 0.00 | 0.00 | 0.00 | 88 | 1017.8 |
| 20260906093049 | 69 | 0 | 0.0 | 0.0 | 0.00 | 0.00 | 0.00 | 88 | 1017.7 |
| 20260906091558 | 69 | 0 | 0.0 | 0.0 | 0.00 | 0.00 | 0.00 | 87 | 1017.6 |
| 20260906090045 | 69 | 0 | 0.0 | 0.0 | 0.00 | 0.00 | 0.00 | 87 | 1017.6 |
| 20260906084541 | 68 | 0 | 0.0 | 0.0 | 0.00 | 0.00 | 0.00 | 87 | 1017.7 |
| 20260906083050 | 68 | 0 | 0.0 | 0.0 | 0.00 | 0.00 | 0.00 | 88 | 1017.7 |
| 20260906081545 | 68 | 0 | 0.0 | 0.0 | 0.00 | 0.00 | 0.00 | 88 | 1017.6 |
| 20260906080046 | 69 | 0 | 0.0 | 0.9 | 0.00 | 0.00 | 0.00 | 88 | 1017.6 |
| 20260906074548 | 69 | 0 | 0.0 | 0.0 | 0.00 | 0.00 | 0.00 | 89 | 1017.5 |
| 20260906073040 | 69 | 0 | 0.0 | 0.0 | 0.00 | 0.00 | 0.00 | 89 | 1017.6 |
| 20260906071539 | 69 | 0 | 0.0 | 0.0 | 0.00 | 0.00 | 0.00 | 89 | 1017.4 |
| 20260906070042 | 70 | 0 | 0.0 | 0.0 | 0.00 | 0.00 | 0.00 | 89 | 1017.4 |
| 20260906064538 | 70 | 0 | 0.0 | 0.0 | 0.00 | 0.00 | 0.00 | 89 | 1017.5 |
| 20260906063047 | 70 | 0 | 0.0 | 0.0 | 0.00 | 0.00 | 0.00 | 89 | 1017.5 |
| 20260906061543 | 70 | 0 | 0.0 | 0.0 | 0.00 | 0.00 | 0.00 | 89 | 1017.5 |
| 20260906060042 | 70 | 0 | 0.0 | 0.0 | 0.00 | 0.00 | 0.00 | 89 | 1017.3 |
| 20260906054548 | 70 | 0 | 0.0 | 0.0 | 0.00 | 0.00 | 0.00 | 89 | 1017.2 |
| 20260906053058 | 70 | 0 | 0.0 | 0.0 | 0.00 | 0.00 | 0.00 | 89 | 1017.0 |
| 20260906051627 | 71 | 0 | 0.0 | 0.0 | 0.00 | 0.00 | 0.00 | 89 | 1017.1 |
| 20260906050052 | 71 | 0 | 0.0 | 0.0 | 0.00 | 0.00 | 0.00 | 88 | 1017.1 |
| 20260906044542 | 72 | 0 | 0.0 | 2.6 | 0.00 | 0.00 | 0.00 | 88 | 1016.7 |
| 20260906043043 | 72 | 0 | 0.0 | 1.7 | 0.00 | 0.00 | 0.00 | 88 | 1016.7 |
| 20260906041543 | 72 | 0 | 0.0 | 0.0 | 0.00 | 0.00 | 0.00 | 88 | 1016.7 |
| 20260906040045 | 73 | 0 | 0.0 | 0.0 | 0.00 | 0.00 | 0.00 | 87 | 1016.6 |
| 20260906034543 | 73 | 0 | 0.0 | 0.0 | 0.00 | 0.00 | 0.00 | 87 | 1016.7 |
| 20260906033047 | 73 | 0 | 0.0 | 0.0 | 0.00 | 0.00 | 0.00 | 87 | 1016.5 |
| 20260906031543 | 73 | 0 | 0.0 | 0.0 | 0.00 | 0.00 | 0.00 | 87 | 1016.4 |
| 20260906030048 | 73 | 0 | 0.0 | 1.7 | 0.00 | 0.00 | 0.00 | 88 | 1016.3 |
| 20260906024547 | 73 | 0 | 0.0 | 0.0 | 0.00 | 0.00 | 0.00 | 89 | 1016.3 |
| 20260906023051 | 73 | 0 | 0.0 | 0.0 | 0.00 | 0.00 | 0.00 | 89 | 1016.3 |
| 20260906021545 | 73 | 0 | 0.0 | 0.9 | 0.00 | 0.00 | 0.00 | 89 | 1016.3 |
| 20260906020056 | 73 | 0 | 0.0 | 0.0 | 0.00 | 0.00 | 0.00 | 89 | 1016.2 |
| 20260906014547 | 73 | 0 | 0.0 | 0.9 | 0.00 | 0.00 | 0.00 | 89 | 1016.0 |
| 20260906013051 | 72 | 0 | 0.0 | 4.3 | 0.00 | 0.00 | 0.00 | 89 | 1015.7 |
| 20260906011558 | 72 | 23 | 0.9 | 3.5 | 0.00 | 0.00 | 0.00 | 89 | 1015.6 |
| 20260906010045 | 72 | 0 | 0.0 | 2.6 | 0.00 | 0.00 | 0.00 | 88 | 1015.5 |
| 20260906004539 | 72 | 355 | 0.0 | 3.5 | 0.00 | 0.00 | 0.00 | 88 | 1015.5 |
| 20260906003046 | 72 | 333 | 0.0 | 2.6 | 0.00 | 0.00 | 0.00 | 88 | 1015.5 |
| 20260906001546 | 73 | 0 | 0.0 | 4.3 | 0.00 | 0.00 | 0.00 | 87 | 1015.4 |
| 20260906000053 | 73 | 0 | 0.9 | 4.3 | 0.00 | 0.00 | 0.00 | 87 | 1015.5 |
| 20260905234549 | 74 | 359 | 0.0 | 4.3 | 0.00 | 0.00 | 0.00 | 86 | 1015.3 |
| 20260905233046 | 74 | 0 | 0.0 | 4.3 | 0.00 | 0.00 | 0.00 | 86 | 1015.4 |
| 20260905231544 | 74 | 9 | 1.7 | 4.3 | 0.00 | 0.00 | 0.00 | 86 | 1015.3 |
| 20260905230044 | 75 | 0 | 0.9 | 4.3 | 0.00 | 0.00 | 0.00 | 85 | 1015.4 |
| 20260905224550 | 75 | 0 | 0.9 | 4.3 | 0.00 | 0.00 | 0.00 | 85 | 1015.3 |
| 20260905223044 | 75 | 313 | 0.9 | 6.1 | 0.00 | 0.00 | 0.00 | 85 | 1015.2 |
| 20260905221544 | 76 | 0 | 0.9 | 7.8 | 0.00 | 0.00 | 0.00 | 84 | 1015.1 |
| 20260905220048 | 76 | 2 | 2.6 | 8.7 | 0.00 | 0.00 | 0.00 | 83 | 1014.9 |
| 20260905214546 | 77 | 0 | 0.9 | 7.8 | 0.00 | 0.00 | 0.00 | 82 | 1014.7 |
| 20260905213044 | 77 | 30 | 1.7 | 6.1 | 0.00 | 0.00 | 0.00 | 80 | 1014.5 |
| 20260905211551 | 77 | 0 | 1.7 | 7.8 | 0.00 | 0.00 | 0.00 | 83 | 1014.4 |
| 20260905210044 | 77 | 27 | 2.6 | 6.1 | 0.00 | 0.00 | 0.00 | 81 | 1014.4 |
| 20260905204545 | 78 | 282 | 2.6 | 7.0 | 0.00 | 0.00 | 0.00 | 81 | 1014.3 |
| 20260905203041 | 78 | 0 | 1.7 | 6.1 | 0.00 | 0.00 | 0.00 | 80 | 1014.5 |
| 20260905201545 | 78 | 315 | 0.0 | 6.1 | 0.00 | 0.00 | 0.00 | 81 | 1014.6 |
| 20260905200044 | 78 | 347 | 2.6 | 6.1 | 0.00 | 0.00 | 0.00 | 80 | 1014.5 |
| 20260905194539 | 80 | 0 | 1.7 | 7.0 | 0.00 | 0.00 | 0.00 | 79 | 1014.5 |
| 20260905193043 | 81 | 338 | 0.9 | 7.0 | 0.00 | 0.00 | 0.00 | 76 | 1014.6 |
| 20260905191545 | 81 | 0 | 0.0 | 5.2 | 0.00 | 0.00 | 0.00 | 75 | 1014.6 |
| 20260905190043 | 82 | 18 | 1.7 | 6.1 | 0.00 | 0.00 | 0.00 | 73 | 1014.6 |
| 20260905184606 | 83 | 0 | 0.9 | 6.1 | 0.00 | 0.00 | 0.00 | 74 | 1014.7 |
| 20260905183050 | 83 | 0 | 0.9 | 6.1 | 0.00 | 0.00 | 0.00 | 72 | 1014.6 |
| 20260905181557 | 84 | 0 | 1.7 | 6.1 | 0.00 | 0.00 | 0.00 | 72 | 1014.7 |
| 20260905180049 | 84 | 0 | 0.0 | 4.3 | 0.00 | 0.00 | 0.00 | 72 | 1014.7 |
| 20260905174541 | 85 | 0 | 0.0 | 5.2 | 0.00 | 0.00 | 0.00 | 70 | 1014.7 |
| 20260905173046 | 84 | 0 | 0.0 | 4.3 | 0.00 | 0.00 | 0.00 | 72 | 1014.7 |
| 20260905171545 | 84 | 0 | 0.0 | 5.2 | 0.00 | 0.00 | 0.00 | 73 | 1014.7 |
| 20260905170041 | 84 | 333 | 0.9 | 4.3 | 0.00 | 0.00 | 0.00 | 75 | 1014.9 |
| 20260905164548 | 84 | 0 | 0.9 | 6.1 | 0.00 | 0.00 | 0.00 | 74 | 1015.0 |
| 20260905163044 | 84 | 0 | 0.0 | 0.0 | 0.00 | 0.00 | 0.00 | 76 | 1014.9 |
| 20260905161551 | 83 | 39 | 0.0 | 0.0 | 0.00 | 0.00 | 0.00 | 80 | 1015.1 |
| 20260905160051 | 83 | 0 | 0.0 | 1.7 | 0.00 | 0.00 | 0.00 | 81 | 1015.1 |
| 20260905154607 | 82 | 0 | 0.0 | 0.9 | 0.00 | 0.00 | 0.00 | 83 | 1014.9 |
| 20260905153041 | 81 | 0 | 0.0 | 2.6 | 0.00 | 0.00 | 0.00 | 85 | 1014.8 |
| 20260905151551 | 81 | 331 | 0.0 | 3.5 | 0.00 | 0.00 | 0.00 | 85 | 1014.8 |
| 20260905150047 | 81 | 0 | 0.0 | 4.3 | 0.00 | 0.00 | 0.00 | 85 | 1014.4 |
| 20260905144544 | 80 | 0 | 0.0 | 2.6 | 0.00 | 0.00 | 0.00 | 86 | 1014.3 |
| 20260905143044 | 81 | 0 | 0.0 | 0.9 | 0.00 | 0.00 | 0.00 | 88 | 1014.1 |
| 20260905141542 | 79 | 0 | 0.0 | 0.9 | 0.00 | 0.00 | 0.00 | 88 | 1014.5 |
| 20260905140048 | 78 | 0 | 0.0 | 0.0 | 0.00 | 0.00 | 0.00 | 86 | 1014.7 |
| 20260905134544 | 78 | 0 | 0.0 | 0.0 | 0.00 | 0.00 | 0.00 | 83 | 1014.6 |
| 20260905133048 | 77 | 0 | 0.0 | 0.0 | 0.00 | 0.00 | 0.00 | 81 | 1014.3 |
| 20260905131550 | 77 | 0 | 0.0 | 0.0 | 0.00 | 0.00 | 0.00 | 81 | 1014.2 |
| 20260905130049 | 77 | 0 | 0.0 | 0.0 | 0.00 | 0.00 | 0.00 | 81 | 1014.0 |
| 20260905124544 | 76 | 0 | 0.0 | 0.0 | 0.00 | 0.00 | 0.00 | 82 | 1013.9 |
| 20260905123045 | 76 | 0 | 0.0 | 0.0 | 0.00 | 0.00 | 0.00 | 81 | 1013.9 |
| 20260905121545 | 76 | 0 | 0.0 | 0.0 | 0.00 | 0.00 | 0.00 | 81 | 1013.7 |
| 20260905120048 | 76 | 0 | 0.0 | 0.0 | 0.00 | 0.00 | 0.00 | 82 | 1013.4 |
| 20260905114549 | 76 | 0 | 0.0 | 0.0 | 0.00 | 0.00 | 0.00 | 82 | 1013.4 |
| 20260905113049 | 76 | 0 | 0.0 | 0.0 | 0.00 | 0.00 | 0.00 | 83 | 1013.2 |
| 20260905111621 | 76 | 0 | 0.0 | 0.0 | 0.00 | 0.00 | 0.00 | 84 | 1013.0 |
| 20260905110043 | 76 | 0 | 0.0 | 0.0 | 0.00 | 0.00 | 0.00 | 85 | 1012.9 |
| 20260905104546 | 76 | 0 | 0.0 | 0.0 | 0.00 | 0.00 | 0.00 | 85 | 1012.9 |
| 20260905103043 | 76 | 0 | 0.0 | 0.0 | 0.00 | 0.00 | 0.00 | 86 | 1013.1 |
| 20260905101550 | 77 | 0 | 0.0 | 0.0 | 0.00 | 0.00 | 0.00 | 87 | 1013.1 |